Location: Cutcane
(34.9365°N, 84.2371°W)
Time: 01:45:55
(UTC+00:00)

Envisat - Visible Passes

Search period start: 19 August 2022 00:00
Search period end: 29 August 2022 00:00
Orbit: 763 x 765 km, 98.2° (Epoch: 18 August)

Date Brightness Start Highest point End Pass type
(mag) Time Alt. Az. Time Alt. Az. Time Alt. Az.
19 Aug 5.7 08:45:40 10° ENE 08:48:12 14° E 08:50:43 10° ESE visible
19 Aug 3.1 10:22:32 10° N 10:27:30 56° WNW 10:32:26 10° SSW visible
20 Aug 3.5 09:45:35 10° NNE 09:50:36 61° E 09:55:37 10° S visible
21 Aug 5.0 09:09:21 10° NE 09:13:32 25° E 09:17:41 10° SSE visible
22 Aug 3.0 10:10:39 10° N 10:15:43 74° WNW 10:20:46 10° SSW visible
23 Aug 4.0 09:33:53 10° NNE 09:38:46 46° E 09:43:37 10° S visible
24 Aug 5.4 08:58:01 10° NE 09:01:38 19° E 09:05:14 10° SE visible
24 Aug 3.5 10:36:01 10° N 10:40:44 40° WNW 10:45:27 10° SW visible
25 Aug 3.0 09:58:49 10° NNE 10:03:55 85° ESE 10:08:59 10° SSW visible
26 Aug 4.5 09:22:16 10° NNE 09:26:55 35° E 09:31:31 10° SSE visible
27 Aug 5.7 08:46:56 10° ENE 08:49:43 15° E 08:52:29 10° SE visible
27 Aug 3.2 10:24:03 10° N 10:28:58 53° WNW 10:33:53 10° SSW visible
28 Aug 3.4 09:47:02 10° NNE 09:52:06 65° ESE 09:57:07 10° S visible
